TimeEST,TemperatureF,Dew PointF,Humidity,Sea Level PressureIn,VisibilityMPH,Wind Direction,Wind SpeedMPH,Gust SpeedMPH,PrecipitationIn,Events,Conditions,WindDirDegrees,DateUTC
12:15 AM,27.3,20.3,75,29.94,10.0,NNW,3.5,-,N/A,,Overcast,340,2013-03-03 05:15:00
12:35 AM,27.3,19.4,72,29.94,10.0,NW,8.1,-,N/A,,Overcast,320,2013-03-03 05:35:00
12:55 AM,27.1,20.3,75,29.94,10.0,NNW,4.6,-,N/A,Snow,Light Snow,330,2013-03-03 05:55:00
1:15 AM,26.8,20.8,78,29.94,7.0,NW,3.5,-,N/A,Snow,Light Snow,310,2013-03-03 06:15:00
1:35 AM,26.6,21.9,82,29.94,5.0,NNW,4.6,-,N/A,Snow,Light Snow,330,2013-03-03 06:35:00
1:55 AM,26.4,22.5,85,29.95,7.0,NNW,3.5,-,N/A,Snow,Light Snow,330,2013-03-03 06:55:00
2:15 AM,26.2,22.8,87,29.95,3.0,NNW,5.8,-,N/A,Snow,Light Snow,330,2013-03-03 07:15:00
2:35 AM,26.4,23.2,88,29.94,4.0,North,5.8,-,N/A,Snow,Light Snow,350,2013-03-03 07:35:00
2:55 AM,25.7,22.5,88,29.94,2.5,North,6.9,-,N/A,Snow,Light Snow,350,2013-03-03 07:55:00
3:15 AM,25.5,21.7,86,29.94,4.0,North,13.8,17.3,N/A,Snow,Light Snow,350,2013-03-03 08:15:00
3:35 AM,25.5,19.6,78,29.93,10.0,North,4.6,-,N/A,Snow,Light Snow,360,2013-03-03 08:35:00
3:55 AM,25.5,19.0,76,29.93,10.0,NW,3.5,-,N/A,,Overcast,320,2013-03-03 08:55:00
4:15 AM,25.3,20.5,82,29.93,4.0,NNW,5.8,-,N/A,Snow,Light Snow,340,2013-03-03 09:15:00
4:35 AM,24.8,21.7,88,29.93,2.5,NW,4.6,-,N/A,Snow,Light Snow,310,2013-03-03 09:35:00
5:15 AM,24.6,22.5,91,29.93,3.0,West,3.5,-,N/A,Snow,Light Snow,270,2013-03-03 10:15:00
5:35 AM,24.4,22.6,93,29.94,2.5,West,4.6,-,N/A,Snow,Light Snow,270,2013-03-03 10:35:00
6:15 AM,24.4,22.1,91,29.94,2.5,NW,8.1,-,N/A,Snow,Light Snow,320,2013-03-03 11:15:00
6:35 AM,24.4,21.6,89,29.94,2.5,NNW,5.8,-,N/A,Snow,Light Snow,330,2013-03-03 11:35:00
7:15 AM,23.9,20.8,88,29.94,7.0,NNW,4.6,-,N/A,Snow,Light Snow,330,2013-03-03 12:15:00
7:35 AM,23.9,19.0,82,29.95,10.0,NNW,5.8,-,N/A,Snow,Light Snow,330,2013-03-03 12:35:00
7:55 AM,24.4,17.4,75,29.95,10.0,NW,8.1,-,N/A,Snow,Light Snow,320,2013-03-03 12:55:00
8:15 AM,24.3,19.0,80,29.95,5.0,WNW,4.6,-,N/A,Snow,Light Snow,300,2013-03-03 13:15:00
8:35 AM,24.4,19.8,82,29.97,2.0,WNW,4.6,-,N/A,Snow,Light Snow,300,2013-03-03 13:35:00
8:55 AM,24.1,20.5,86,29.97,1.2,NW,3.5,-,N/A,Snow,Light Snow,320,2013-03-03 13:55:00
9:15 AM,24.6,21.0,86,29.97,1.8,WNW,3.5,-,N/A,Snow,Light Snow,300,2013-03-03 14:15:00
9:35 AM,25.3,21.2,84,29.97,4.0,WNW,8.1,-,N/A,Snow,Light Snow,290,2013-03-03 14:35:00
9:55 AM,26.4,21.6,82,29.96,3.0,NW,6.9,-,N/A,Snow,Light Snow,310,2013-03-03 14:55:00
10:15 AM,26.4,20.1,77,29.96,4.0,NNW,5.8,-,N/A,Snow,Light Snow,330,2013-03-03 15:15:00
10:35 AM,27.0,21.4,79,29.96,2.5,West,6.9,-,N/A,Snow,Light Snow,280,2013-03-03 15:35:00
10:55 AM,27.3,21.9,80,29.96,3.0,NW,6.9,-,N/A,Snow,Light Snow,320,2013-03-03 15:55:00
11:15 AM,27.1,22.3,82,29.96,1.8,North,3.5,-,N/A,Snow,Light Snow,360,2013-03-03 16:15:00
11:35 AM,28.4,21.6,76,29.96,10.0,NNW,9.2,-,N/A,Snow,Light Snow,340,2013-03-03 16:35:00
11:55 AM,27.5,21.9,80,29.96,3.0,NNW,5.8,-,N/A,Snow,Light Snow,330,2013-03-03 16:55:00
12:15 PM,28.4,21.2,74,29.95,4.0,NNW,10.4,16.1,N/A,Snow,Light Snow,340,2013-03-03 17:15:00
12:35 PM,29.3,20.5,70,29.95,10.0,NNW,9.2,-,N/A,,Overcast,330,2013-03-03 17:35:00
12:55 PM,29.8,20.5,68,29.94,10.0,North,5.8,-,N/A,Snow,Light Snow,360,2013-03-03 17:55:00
1:15 PM,29.5,21.2,71,29.94,10.0,NNW,4.6,-,N/A,Snow,Light Snow,340,2013-03-03 18:15:00
1:35 PM,29.8,21.4,71,29.93,10.0,NW,9.2,16.1,N/A,Snow,Light Snow,310,2013-03-03 18:35:00
2:15 PM,30.4,22.5,72,29.92,7.0,NNW,13.8,17.3,N/A,Snow,Light Snow,330,2013-03-03 19:15:00
2:35 PM,30.6,21.4,69,29.92,10.0,NNW,10.4,-,N/A,Snow,Light Snow,340,2013-03-03 19:35:00
2:55 PM,30.7,20.7,66,29.92,10.0,WNW,10.4,-,N/A,Snow,Light Snow,290,2013-03-03 19:55:00
3:15 PM,31.1,20.5,65,29.93,10.0,NW,9.2,-,N/A,,Overcast,310,2013-03-03 20:15:00
3:35 PM,30.9,20.1,64,29.93,10.0,North,9.2,-,N/A,Snow,Light Snow,350,2013-03-03 20:35:00
3:55 PM,30.7,19.4,63,29.93,10.0,NW,11.5,-,N/A,Snow,Light Snow,320,2013-03-03 20:55:00
4:15 PM,30.7,20.5,66,29.93,10.0,NNW,9.2,-,N/A,,Overcast,340,2013-03-03 21:15:00
4:35 PM,30.2,21.4,70,29.94,10.0,NNW,8.1,-,N/A,Snow,Light Snow,330,2013-03-03 21:35:00
4:55 PM,30.2,20.1,66,29.94,10.0,NW,13.8,18.4,N/A,Snow,Light Snow,320,2013-03-03 21:55:00
5:15 PM,30.2,21.4,70,29.94,7.0,NW,11.5,-,N/A,Snow,Light Snow,320,2013-03-03 22:15:00
5:35 PM,29.8,21.6,71,29.95,10.0,NNW,9.2,-,N/A,,Overcast,330,2013-03-03 22:35:00
5:55 PM,29.3,21.0,71,29.95,10.0,NNW,12.7,20.7,N/A,Snow,Light Snow,330,2013-03-03 22:55:00
6:15 PM,29.1,20.8,71,29.96,10.0,NW,10.4,-,N/A,,Overcast,320,2013-03-03 23:15:00
6:35 PM,28.9,21.4,73,29.96,10.0,NNW,9.2,16.1,N/A,Snow,Light Snow,340,2013-03-03 23:35:00
6:55 PM,28.8,20.8,72,29.97,7.0,NW,9.2,16.1,N/A,Snow,Light Snow,310,2013-03-03 23:55:00
7:15 PM,28.4,21.4,75,29.97,10.0,NNW,8.1,-,N/A,,Overcast,330,2013-03-04 00:15:00
7:35 PM,28.8,19.6,69,29.98,10.0,NW,9.2,16.1,N/A,,Overcast,320,2013-03-04 00:35:00
8:15 PM,28.8,18.5,66,29.99,10.0,NNW,6.9,-,N/A,,Overcast,330,2013-03-04 01:15:00
8:35 PM,28.6,18.5,66,29.99,10.0,NW,10.4,-,N/A,,Overcast,320,2013-03-04 01:35:00
8:55 PM,28.4,18.9,67,29.99,10.0,NNW,8.1,-,N/A,,Overcast,330,2013-03-04 01:55:00
9:15 PM,28.4,20.3,72,30.00,10.0,NW,6.9,-,N/A,Snow,Light Snow,320,2013-03-04 02:15:00
9:35 PM,28.0,21.7,77,30.00,10.0,NW,8.1,-,N/A,Snow,Light Snow,320,2013-03-04 02:35:00
9:55 PM,28.2,21.7,77,30.00,10.0,NW,10.4,-,N/A,Snow,Light Snow,320,2013-03-04 02:55:00
10:15 PM,28.4,20.3,72,30.01,10.0,NW,11.5,-,N/A,,Overcast,320,2013-03-04 03:15:00
10:35 PM,28.2,17.2,63,30.01,10.0,NW,9.2,19.6,N/A,,Overcast,320,2013-03-04 03:35:00
10:55 PM,28.0,16.2,61,30.01,10.0,WNW,11.5,-,N/A,,Overcast,300,2013-03-04 03:55:00
11:15 PM,28.0,15.1,58,30.01,10.0,NNW,10.4,17.3,N/A,,Overcast,330,2013-03-04 04:15:00
11:35 PM,28.0,14.9,58,30.01,10.0,NNW,8.1,-,N/A,,Overcast,340,2013-03-04 04:35:00